Weather History for Aktion, Greece

Change the Weather History Date:

Tuesday, August 20, 2013

  Actual Average Record
Temperature  
Mean Temperature 82 °F -  
Max Temperature 95 °F 79 °F 95 °F (2006)
Min Temperature 70 °F 65 °F 66 °F (2005)
Cooling Degree Days 18    
Growing Degree Days 32 (Base 50)    
Moisture  
Dew Point 66 °F    
Average Humidity 59    
Maximum Humidity 89    
Minimum Humidity 19    
Precipitation  
Precipitation 0.00 in - - ()
Sea Level Pressure  
Sea Level Pressure 29.86 in    
Wind  
Wind Speed 6 mph ()    
Max Wind Speed 15 mph    
Max Gust Speed -    
Visibility 6.2 miles    
Events      
Averages and records for this station are not official NWS values.
T = Trace of Precipitation, MM = Missing Value Source: Averaged Metar Reports

Daily Weather History Graph

Daily Weather History Graph

Search for Another Location

Airport:

Trip Planner

Search our weather history database for the weather conditions in past years. The results will help you decide how hot, cold, wet, or windy it might be!

Date:

Astronomy

Aug. 20, 2013 Rise Set
Actual Time 6:54 AM EEST 8:24 PM EEST
Civil Twilight 6:26 AM EEST 8:53 PM EEST
Nautical Twilight 5:53 AM EEST 9:26 PM EEST
Astronomical Twilight 5:17 AM EEST 10:02 PM EEST
Moon 7:44 PM EEST (8/20) 6:03 AM EEST (8/20)
Length of Visible Light 14h 26m
Length of Day
13h 29m
Waxing Gibbous, 99% of the Moon is Illuminated
Aug 20
Waxing Gibbous
Aug 21
Full
Aug 28
Last Quarter
Sep 5
New
Sep 12
First Quarter

Hourly Weather History & Observations

Time (EEST) Temp. Heat Index Dew Point Humidity Pressure Visibility Wind Dir Wind Speed Gust Speed Precip Events Conditions
12:50 AM 77.0 °F - 69.8 °F 78% 29.89 in 6.2 mi Calm Calm - N/A   Partly Cloudy
1:50 AM 75.2 °F - 69.8 °F 83% 29.89 in 6.2 mi Calm Calm - N/A   Partly Cloudy
2:50 AM 75.2 °F - 71.6 °F 89% 29.89 in 6.2 mi Calm Calm - N/A   Partly Cloudy
3:00 AM 75 °F - 71 °F 85% 29.90 in 6 mi Calm Calm - -   Scattered Clouds
4:50 AM 73.4 °F - 69.8 °F 88% 29.89 in 6.2 mi Calm Calm - N/A   Partly Cloudy
5:50 AM 71.6 °F - 68.0 °F 88% 29.89 in 6.2 mi ENE 6.9 mph - N/A   Partly Cloudy
6:20 AM 73.4 °F - 68.0 °F 83% 29.86 in 6.2 mi ENE 8.1 mph - N/A   Partly Cloudy
6:50 AM 75.2 °F - 68.0 °F 78% 29.86 in 6.2 mi East 9.2 mph - N/A   Partly Cloudy
7:20 AM 77.0 °F - 69.8 °F 78% 29.89 in 6.2 mi ENE 8.1 mph - N/A   Partly Cloudy
7:50 AM 77.0 °F - 69.8 °F 78% 29.89 in 6.2 mi ENE 9.2 mph - N/A   Partly Cloudy
8:20 AM 78.8 °F - 66.2 °F 65% 29.89 in 6.2 mi ENE 9.2 mph - N/A   Partly Cloudy
8:50 AM 80.6 °F 82.3 °F 64.4 °F 58% 29.89 in 6.2 mi ENE 9.2 mph - N/A   Partly Cloudy
9:00 AM 81 °F - 65 °F 49% 29.89 in 6 mi ENE 9.2 mph - -   Scattered Clouds
9:20 AM 82.4 °F 84.6 °F 66.2 °F 58% 29.89 in 6.2 mi NE 8.1 mph - N/A   Partly Cloudy
9:50 AM 84.2 °F 85.0 °F 62.6 °F 48% 29.89 in - NE 5.8 mph - N/A   Clear
10:20 AM 86.0 °F 85.4 °F 59.0 °F 40% 29.89 in - NNE 5.8 mph - N/A   Clear
10:50 AM 87.8 °F 86.5 °F 57.2 °F 35% 29.89 in - NE 6.9 mph - N/A   Clear
11:20 AM 87.8 °F 86.5 °F 57.2 °F 35% 29.89 in - NE 6.9 mph - N/A   Clear
11:50 AM 91.4 °F - 50.0 °F 24% 29.89 in - NE 8.1 mph - N/A   Clear
12:20 PM 93.2 °F - 48.2 °F 21% 29.86 in - NE 6.9 mph - N/A   Clear
12:50 PM 95.0 °F - 46.4 °F 19% 29.86 in 6.2 mi NE 6.9 mph - N/A   Partly Cloudy
1:20 PM 89.6 °F 93.4 °F 68.0 °F 49% 29.86 in 6.2 mi WNW 9.2 mph - N/A   Partly Cloudy
1:50 PM 89.6 °F 90.1 °F 62.6 °F 40% 29.86 in 6.2 mi West 12.7 mph - N/A   Partly Cloudy
2:20 PM 89.6 °F 92.2 °F 66.2 °F 46% 29.86 in 6.2 mi West 13.8 mph - N/A   Partly Cloudy
2:50 PM 89.6 °F 90.1 °F 62.6 °F 40% 29.83 in 6.2 mi West 13.8 mph - N/A   Partly Cloudy
3:00 PM 89 °F - 62 °F 30% 29.85 in 6 mi West 13.8 mph - -   Scattered Clouds
3:20 PM 89.6 °F 91.1 °F 64.4 °F 43% 29.83 in 6.2 mi West 15.0 mph - N/A   Partly Cloudy
3:50 PM 89.6 °F 89.5 °F 60.8 °F 38% 29.83 in 6.2 mi West 15.0 mph - N/A   Partly Cloudy
4:20 PM 89.6 °F 92.2 °F 66.2 °F 46% 29.83 in 6.2 mi West 15.0 mph - N/A   Partly Cloudy
4:50 PM 87.8 °F 92.6 °F 69.8 °F 55% 29.83 in 6.2 mi WNW 15.0 mph - N/A   Partly Cloudy
5:20 PM 87.8 °F 93.8 °F 71.6 °F 58% 29.83 in 6.2 mi WNW 15.0 mph - N/A   Partly Cloudy
5:50 PM 86.0 °F 90.4 °F 69.8 °F 58% 29.83 in 6.2 mi WNW 13.8 mph - N/A   Partly Cloudy
6:20 PM 86.0 °F 91.8 °F 71.6 °F 62% 29.83 in 6.2 mi WNW 11.5 mph - N/A   Partly Cloudy
6:50 PM 84.2 °F 88.4 °F 69.8 °F 62% 29.83 in 6.2 mi WNW 10.4 mph - N/A   Partly Cloudy
7:20 PM 84.2 °F 89.6 °F 71.6 °F 66% 29.83 in 6.2 mi West 10.4 mph - N/A   Partly Cloudy
7:50 PM 82.4 °F 86.3 °F 69.8 °F 66% 29.83 in 6.2 mi West 8.1 mph - N/A   Partly Cloudy
8:20 PM 80.6 °F 83.9 °F 69.8 °F 70% 29.83 in 6.2 mi West 5.8 mph - N/A   Partly Cloudy
8:50 PM 78.8 °F - 71.6 °F 78% 29.83 in 6.2 mi West 5.8 mph - N/A   Partly Cloudy
9:00 PM 80 °F - 71 °F 66% 29.85 in 6 mi West 5.8 mph - -   Scattered Clouds
9:50 PM 78.8 °F - 69.8 °F 74% 29.86 in 6.2 mi Variable 3.5 mph - N/A   Partly Cloudy
10:50 PM 77.0 °F - 69.8 °F 78% 29.86 in 6.2 mi Calm Calm - N/A   Partly Cloudy
11:50 PM 73.4 °F - 68.0 °F 83% 29.86 in 6.2 mi Calm Calm - N/A   Partly Cloudy